• In Deutschland
  • Länderverzeichnis
  • Für 7 Tage
  • Wassertemperatur
  • Satellitenkarten
  • Wetterkarte
  • Widgets
  • user-avatar
    Anmelden

    Stündliche Wetter Sydney

    Heute, 23 April, Sonntag

    Zeit Temperatur Niederschläge Wind Luftdruck Luftfeuchtigkeit
    00:00 +14°C° 0,1 mm 3 m/S 766 mmHg 91%
    01:00 +15°C° 0,1 mm 2 m/S 766 mmHg 91%
    02:00 +15°C° 0,1 mm 2 m/S 766 mmHg 91%
    03:00 +15°C° 0,1 mm 2 m/S 766 mmHg 91%
    04:00 +14°C° 0 mm 1 m/S 766 mmHg 93%
    05:00 +14°C° 0 mm 2 m/S 766 mmHg 91%
    06:00 +15°C° 0 mm 2 m/S 766 mmHg 89%
    07:00 +15°C° 0 mm 2 m/S 766 mmHg 87%
    08:00 +19°C° 0 mm 1 m/S 766 mmHg 75%
    09:00 +22°C° 0 mm 1 m/S 766 mmHg 63%
    10:00 +25°C° 0 mm 1 m/S 766 mmHg 51%
    11:00 +26°C° 0 mm 1 m/S 766 mmHg 47%
    12:00 +27°C° 0 mm 1 m/S 765 mmHg 43%
    13:00 +28°C° 0 mm 1 m/S 765 mmHg 39%
    14:00 +28°C° 0 mm 1 m/S 765 mmHg 43%
    15:00 +27°C° 0 mm 2 m/S 764 mmHg 47%
    16:00 +26°C° 0 mm 2 m/S 764 mmHg 51%
    17:00 +23°C° 0 mm 2 m/S 764 mmHg 63%
    18:00 +20°C° 0 mm 2 m/S 765 mmHg 75%
    19:00 +18°C° 0 mm 1 m/S 765 mmHg 88%
    20:00 +18°C° 0 mm 1 m/S 765 mmHg 90%
    21:00 +16°C° 0 mm 1 m/S 766 mmHg 93%
    22:00 +15°C° 0 mm 1 m/S 766 mmHg 96%
    23:00 +15°C° 0 mm 1 m/S 766 mmHg 95%

    Morgen, 24 April, Montag

    Zeit Temperatur Niederschläge Wind Luftdruck Luftfeuchtigkeit
    00:00 +15°C° 0 mm 1 m/S 765 mmHg 95%
    01:00 +15°C° 0 mm 1 m/S 765 mmHg 95%
    02:00 +15°C° 0 mm 2 m/S 765 mmHg 96%
    03:00 +15°C° 0 mm 2 m/S 765 mmHg 96%
    04:00 +15°C° 0 mm 2 m/S 765 mmHg 97%
    05:00 +15°C° 0 mm 2 m/S 765 mmHg 96%
    06:00 +15°C° 0 mm 2 m/S 765 mmHg 96%
    07:00 +15°C° 0 mm 2 m/S 765 mmHg 95%
    08:00 +19°C° 0 mm 1 m/S 765 mmHg 81%
    09:00 +22°C° 0 mm 1 m/S 765 mmHg 67%
    10:00 +26°C° 0 mm 1 m/S 765 mmHg 54%
    11:00 +26°C° 0 mm 1 m/S 764 mmHg 50%
    12:00 +27°C° 0 mm 1 m/S 763 mmHg 46%
    13:00 +28°C° 0 mm 1 m/S 763 mmHg 42%
    14:00 +27°C° 0 mm 2 m/S 762 mmHg 45%
    15:00 +26°C° 0 mm 2 m/S 762 mmHg 49%
    16:00 +26°C° 0 mm 3 m/S 762 mmHg 52%
    17:00 +24°C° 0 mm 3 m/S 762 mmHg 62%
    18:00 +21°C° 0 mm 3 m/S 762 mmHg 72%
    19:00 +19°C° 0 mm 4 m/S 762 mmHg 81%
    20:00 +18°C° 0 mm 4 m/S 762 mmHg 84%
    21:00 +18°C° 0 mm 4 m/S 762 mmHg 87%
    22:00 +17°C° 0 mm 4 m/S 762 mmHg 90%
    23:00 +15°C° 0 mm 4 m/S 762 mmHg 90%

    übermorgen, 25 April, Dienstag

    Zeit Temperatur Niederschläge Wind Luftdruck Luftfeuchtigkeit
    00:00 +15°C° 0 mm 4 m/S 762 mmHg 90%
    01:00 +14°C° 0 mm 4 m/S 761 mmHg 91%
    02:00 +14°C° 0 mm 3 m/S 761 mmHg 89%
    03:00 +14°C° 0 mm 3 m/S 761 mmHg 87%
    04:00 +14°C° 0 mm 3 m/S 760 mmHg 85%
    05:00 +14°C° 0,1 mm 3 m/S 760 mmHg 84%
    06:00 +16°C° 0,1 mm 3 m/S 760 mmHg 83%
    07:00 +15°C° 0,1 mm 4 m/S 760 mmHg 82%
    08:00 +19°C° 0,1 mm 4 m/S 760 mmHg 75%
    09:00 +21°C° 0,1 mm 4 m/S 760 mmHg 68%
    10:00 +23°C° 0,1 mm 4 m/S 760 mmHg 62%
    11:00 +26°C° 0 mm 4 m/S 759 mmHg 55%
    12:00 +27°C° 0 mm 4 m/S 758 mmHg 49%
    13:00 +29°C° 0 mm 4 m/S 757 mmHg 43%
    14:00 +28°C° 0,1 mm 3 m/S 757 mmHg 46%
    15:00 +28°C° 0,1 mm 3 m/S 756 mmHg 49%
    16:00 +27°C° 0,1 mm 3 m/S 756 mmHg 52%
    17:00 +25°C° 0,6 mm 4 m/S 756 mmHg 63%
    18:00 +22°C° 0,6 mm 4 m/S 756 mmHg 74%
    19:00 +20°C° 0,6 mm 4 m/S 756 mmHg 85%
    20:00 +20°C° 1,9 mm 4 m/S 756 mmHg 88%
    21:00 +19°C° 1,9 mm 4 m/S 756 mmHg 91%
    22:00 +19°C° 1,9 mm 4 m/S 756 mmHg 95%
    23:00 +18°C° 0,2 mm 4 m/S 756 mmHg 94%

    26 April, Mittwoch

    Zeit Temperatur Niederschläge Wind Luftdruck Luftfeuchtigkeit
    00:00 +16°C° 0,2 mm 5 m/S 755 mmHg 94%
    01:00 +16°C° 0,2 mm 5 m/S 755 mmHg 94%
    02:00 +15°C° 0 mm 5 m/S 755 mmHg 93%
    03:00 +15°C° 0 mm 5 m/S 755 mmHg 93%
    04:00 +15°C° 0 mm 6 m/S 754 mmHg 92%
    05:00 +15°C° 0 mm 6 m/S 755 mmHg 90%
    06:00 +14°C° 0 mm 6 m/S 755 mmHg 89%
    07:00 +14°C° 0 mm 6 m/S 755 mmHg 88%
    08:00 +16°C° 0 mm 6 m/S 755 mmHg 74%
    09:00 +19°C° 0 mm 6 m/S 755 mmHg 61%
    10:00 +21°C° 0 mm 7 m/S 755 mmHg 48%
    11:00 +21°C° 0 mm 7 m/S 755 mmHg 46%
    12:00 +21°C° 0 mm 7 m/S 755 mmHg 45%
    13:00 +21°C° 0 mm 7 m/S 755 mmHg 43%
    14:00 +20°C° 0 mm 8 m/S 755 mmHg 44%
    15:00 +18°C° 0 mm 8 m/S 755 mmHg 45%
    16:00 +16°C° 0 mm 9 m/S 756 mmHg 47%
    17:00 +15°C° 0 mm 8 m/S 757 mmHg 49%
    18:00 +13°C° 0 mm 8 m/S 757 mmHg 51%
    19:00 +12°C° 0 mm 7 m/S 758 mmHg 53%
    20:00 +11°C° 0 mm 7 m/S 759 mmHg 55%
    21:00 +11°C° 0 mm 7 m/S 760 mmHg 57%
    22:00 +10°C° 0 mm 7 m/S 760 mmHg 59%
    23:00 +10°C° 0 mm 7 m/S 760 mmHg 61%

    27 April, Donnerstag

    Zeit Temperatur Niederschläge Wind Luftdruck Luftfeuchtigkeit
    00:00 +9°C° 0 mm 7 m/S 760 mmHg 62%
    01:00 +9°C° 0 mm 7 m/S 760 mmHg 64%
    02:00 +8°C° 0 mm 7 m/S 761 mmHg 65%
    03:00 +8°C° 0 mm 7 m/S 761 mmHg 66%
    04:00 +6°C° 0 mm 7 m/S 761 mmHg 67%
    05:00 +6°C° 0 mm 7 m/S 761 mmHg 66%
    06:00 +6°C° 0 mm 7 m/S 762 mmHg 64%
    07:00 +6°C° 0 mm 7 m/S 762 mmHg 63%
    08:00 +9°C° 0,1 mm 7 m/S 763 mmHg 56%
    09:00 +11°C° 0,1 mm 7 m/S 763 mmHg 50%
    10:00 +12°C° 0,1 mm 8 m/S 763 mmHg 43%
    11:00 +13°C° 0,1 mm 8 m/S 763 mmHg 41%
    12:00 +15°C° 0,1 mm 8 m/S 762 mmHg 40%
    13:00 +17°C° 0,1 mm 8 m/S 762 mmHg 38%
    14:00 +16°C° 0 mm 7 m/S 762 mmHg 39%
    15:00 +16°C° 0 mm 7 m/S 762 mmHg 40%
    16:00 +16°C° 0 mm 7 m/S 762 mmHg 40%
    17:00 +14°C° 0,1 mm 6 m/S 763 mmHg 48%
    18:00 +11°C° 0,1 mm 6 m/S 763 mmHg 55%
    19:00 +9°C° 0,1 mm 6 m/S 764 mmHg 63%
    20:00 +9°C° 0,1 mm 6 m/S 764 mmHg 62%
    21:00 +9°C° 0,1 mm 6 m/S 765 mmHg 60%
    22:00 +9°C° 0,1 mm 7 m/S 765 mmHg 59%
    23:00 +8°C° 0 mm 7 m/S 765 mmHg 60%

    28 April, Freitag

    Zeit Temperatur Niederschläge Wind Luftdruck Luftfeuchtigkeit
    00:00 +8°C° 0 mm 6 m/S 764 mmHg 61%
    01:00 +7°C° 0 mm 6 m/S 764 mmHg 62%
    02:00 +7°C° 0 mm 6 m/S 764 mmHg 63%
    03:00 +5°C° 0 mm 6 m/S 764 mmHg 64%
    04:00 +5°C° 0 mm 6 m/S 764 mmHg 65%
    05:00 +6°C° 0 mm 5 m/S 765 mmHg 66%
    06:00 +6°C° 0 mm 5 m/S 765 mmHg 67%
    07:00 +6°C° 0 mm 5 m/S 765 mmHg 68%
    08:00 +8°C° 0 mm 5 m/S 765 mmHg 60%
    09:00 +12°C° 0 mm 4 m/S 765 mmHg 53%
    10:00 +14°C° 0 mm 4 m/S 765 mmHg 46%
    11:00 +17°C° 0 mm 4 m/S 764 mmHg 42%
    12:00 +18°C° 0 mm 4 m/S 764 mmHg 39%
    13:00 +19°C° 0 mm 4 m/S 763 mmHg 35%
    14:00 +19°C° 0 mm 3 m/S 763 mmHg 38%
    15:00 +19°C° 0 mm 3 m/S 763 mmHg 41%
    16:00 +19°C° 0 mm 2 m/S 763 mmHg 44%
    17:00 +16°C° 0 mm 2 m/S 763 mmHg 52%
    18:00 +13°C° 0 mm 2 m/S 763 mmHg 60%
    19:00 +9°C° 0 mm 2 m/S 764 mmHg 68%
    20:00 +10°C° 0 mm 2 m/S 764 mmHg 66%
    21:00 +10°C° 0 mm 3 m/S 764 mmHg 65%
    22:00 +10°C° 0 mm 4 m/S 764 mmHg 63%
    23:00 +10°C° 0 mm 4 m/S 764 mmHg 66%
    Mehr zeigen